Location: Dvur Kralove nad Labem
(50.4330°N, 15.8170°E)
Time: 15:01:53
(UTC+02:00)

ISS - Pass Details

Date: 23 May 2018
Orbit: 402 x 407 km, 51.6° (Epoch: 24 May)

Event Time Altitude Azimuth Distance (km) Brightness Sun altitude
Rises 22:07:42 0° 239° (WSW) 2,313 0.1 -10.0°
Reaches altitude 10° 22:09:47 10° 235° (SW) 1,455 -1.0 -10.2°
Maximum altitude 22:12:59 55° 157° (SSE) 491 -3.8 -10.6°
Drops below altitude 10° 22:16:12 10° 78° (ENE) 1,459 -1.3 -10.9°
Sets 22:18:18 0° 74° (ENE) 2,320 -0.2 -11.1°
